Regional Weather Roundup
Issued by NWS

Home | Current Version | Previous Version | Graphics & Text | Print | Product List | Glossary On
Versions: 1 2 3 4 5 6 7 8 9 10 11 12 13 14 15 16 17 18 19 20 21 22 23 24 25 26 27 28 29 30 31 32 33 34 35 36 37 38 39 40 41 42 43 44 45 46 47 48 49 50
000
ASUS43 KFSD 231402
RWRSD

WEATHER ROUNDUP FOR SOUTH DAKOTA
NATIONAL WEATHER SERVICE SIOUX FALLS SD
900 AM CDT TUE MAY 23 2017

NOTE: "FAIR" INDICATES FEW OR NO CLOUDS BELOW 12,000 FEET WITH NO
SIGNIFICANT WEATHER AND/OR OBSTRUCTIONS TO VISIBILITY.


SDZ001>005-009-010-012>017-231500-
NORTHWEST AND NORTH CENTRAL SOUTH DAKOTA

CITY           SKY/WX    TMP DP  RH WIND       PRES   REMARKS
BUFFALO          N/A     52  36  54 NW8       30.10S
FAITH            N/A     52  37  56 N22       30.10S
MOBRIDGE       CLOUDY    52  38  58 N24G31    30.02R
$$

SDZ012>016-024>037-041>051-057-063-072>074-231500-
SOUTHWEST AND SOUTH CENTRAL SOUTH DAKOTA

CITY           SKY/WX    TMP DP  RH WIND       PRES   REMARKS
RAPID CTY ARPT PTSUNNY   51  37  58 N14       30.15R
PIERRE         LGT RAIN  50  40  68 N15       30.02S
CUSTER         CLOUDY    43  31  62 N8        30.17R
ELLSWORTH AFB  MOSUNNY   51  37  57 N13       30.15R
PHILIP         SUNNY     50  40  68 N15       30.09S
PINE RIDGE     CLOUDY    48  43  82 NW7       30.14R
SPEARFISH      FAIR      48  39  71 VRB6      30.19S
WINNER         CLOUDY    50  41  71 N21G26    30.02R
$$

SDZ004>011-016>023-039-040-231500-
NORTHEAST SOUTH DAKOTA

CITY           SKY/WX    TMP DP  RH WIND       PRES   REMARKS
ABERDEEN       CLOUDY    48  43  82 N17G29    29.97S
WATERTOWN      LGT RAIN  45  44  97 N13       29.91R FOG
BROOKINGS      LGT RAIN  46  44  93 N13       29.90R
SISSETON         N/A     48  47  96 N15       29.92R
$$

SDZ017-020-022-023-036>040-048>070-231500-
SOUTHEAST SOUTH DAKOTA

CITY           SKY/WX    TMP DP  RH WIND       PRES   REMARKS
SIOUX FALLS    LGT RAIN  48  46  93 N13       29.90R
HURON          LGT RAIN  47  46  97 N18       29.95S
MITCHELL       CLOUDY    50  46  86 N18G24    29.95S
YANKTON        CLOUDY    50  45  83 NW13      29.93S
$$

ABBREVIATIONS USED IN REMARKS
   TC - TEMPERATURE IN CELSIUS
  WCI - WIND CHILL INDEX
   HX - HEAT INDEX
  VSB - VISIBILITY





USA.gov is the U.S. government's official web portal to all federal, state and local government web resources and services.